CW9784 Weather Reports


Display with metric or nautical units.
time (UTC)temp
F
wind
direction
speed
MPH
gust
MPH
rain 1hr
in
rain 24hr
in
rain mn
in
humidity
%
barometer
mb
20200706000024 88 225 4.0 10.0 0.00 0.00 0.00 65 1011.3
20200705233021 89 225 4.0 11.0 0.00 0.00 0.00 64 1011.3
20200705230022 90 225 4.0 11.0 0.00 0.00 0.00 61 1011.4
20200705223022 91 225 4.0 10.0 0.00 0.00 0.00 61 1011.9
20200705220023 91 203 3.0 10.0 0.00 0.00 0.00 60 1012.5
20200705213024 91 203 5.0 10.0 0.00 0.00 0.00 58 1012.9
20200705210022 90 225 5.0 12.0 0.00 0.00 0.00 60 1012.8
20200705203023 90 225 3.0 10.0 0.00 0.00 0.00 62 1012.7
20200705200023 90 225 4.0 10.0 0.00 0.00 0.00 61 1012.8
20200705193023 89 225 3.0 12.0 0.00 0.00 0.00 64 1012.8
20200705190022 87 248 3.0 11.0 0.00 0.00 0.00 67 1013.1
20200705183025 90 203 4.0 9.0 0.00 0.00 0.00 65 1013.6
20200705180021 89 203 3.0 10.0 0.00 0.00 0.00 66 1013.8
20200705173024 89 225 4.0 13.0 0.00 0.00 0.00 60 1013.8
20200705170020 89 225 4.0 10.0 0.00 0.00 0.00 64 1013.5
20200705163022 89 203 3.0 9.0 0.00 0.00 0.00 67 1013.7
20200705160021 87 203 3.0 8.0 0.00 0.00 0.00 70 1013.6
20200705153022 86 225 3.0 9.0 0.00 0.00 0.00 73 1014.3
20200705150021 86 180 2.0 8.0 0.00 0.00 0.00 71 1014.1
20200705143022 86 158 1.0 5.0 0.00 0.00 0.00 70 1014.1
20200705140021 84 135 1.0 5.0 0.00 0.00 0.00 73 1014.1
20200705133022 82 135 1.0 5.0 0.00 0.00 0.00 75 1014.1
20200705130022 80 158 1.0 5.0 0.00 0.00 0.00 80 1014.1
20200705123022 77 0.0 2.0 0.00 0.00 0.00 85 1014.1
20200705120021 74 0.0 0.0 0.00 0.00 0.00 93 1014.3
20200705113023 72 0.0 0.0 0.00 0.00 0.00 94 1013.9
20200705110021 69 0.0 0.0 0.00 0.00 0.00 92 1013.8
20200705103021 69 0.0 0.0 0.00 0.00 0.00 92 1013.5
20200705100021 69 0.0 0.0 0.00 0.00 0.00 92 1013.2
20200705093020 70 0.0 0.0 0.00 0.00 0.00 91 1013.4
20200705090020 70 0.0 0.0 0.00 0.00 0.00 91 1013.6
20200705083021 71 0.0 0.0 0.00 0.00 0.00 91 1013.7
20200705080021 72 0.0 0.0 0.00 0.00 0.00 91 1013.5
20200705073021 72 0.0 0.0 0.00 0.00 0.00 90 1013.6
20200705070403 72 0.0 0.0 0.00 0.00 0.00 89 1013.3
20200705063024 73 0.0 0.0 0.00 0.00 0.00 88 1013.4
20200705060022 73 0.0 0.0 0.00 0.00 0.00 86 1013.6
20200705053025 74 0.0 0.0 0.00 0.00 0.00 85 1013.9
20200705050020 75 0.0 0.0 0.00 0.00 0.00 82 1014.0
20200705043024 76 0.0 0.0 0.00 0.00 0.00 82 1014.1
20200705040021 76 0.0 0.0 0.00 0.00 0.00 80 1013.8
20200705033023 77 0.0 0.0 0.00 0.00 0.00 78 1014.3
20200705030022 79 0.0 0.0 0.00 0.00 0.00 75 1014.3
20200705023023 80 0.0 1.0 0.00 0.00 0.00 72 1013.8
20200705020024 82 0.0 0.0 0.00 0.00 0.00 67 1013.7
20200705013024 87 0.0 1.0 0.00 0.00 0.00 63 1013.3
20200705010023 90 0.0 2.0 0.00 0.00 0.00 55 1013.3
20200705003021 92 0.0 2.0 0.00 0.00 0.00 52 1013.2